Temperature
-1 -0 -0 0 0 -0 -0 0 1 1 1 1 0 -0 -0 -0 -0 0 0 0 0 0 0 1 1 1 1 1 1 1 2 2 2 2 2 2 2 2 2 2 2 2 2 2
-1 -0 -1 -0 -0 -1 -0 -0 -0 0 0 -0 -1 -0 -1 -1 -1 -0 -0 -0 -0 0 0 0 0 0 1 1 1 1 1 1 1 1 1 1 1 1 1 1 1 1 1 1
-1 -1 -0 0 -0 -1 -1 -1 -1 -0 0 -1 -1 -2 -1 -1 -1 -1 -0 -0 -0 -0 0 0 0 0 0 0 0 0 0 0 0 0 0 0 0 0 0 0 0 0 0 0
-2 -1 1 1 -1 -1 -1 -2 -2 -2 -2 -2 -2 -1 -1 -1 -1 -1 -1 -1 -0 -0 -0 0 0 -0 -0 -0 -0 -0 -0 -0 -0 -0 -1 -0 -0 -0 -0 -0 -0 -0 -0 -0
-3 -2 -1 0 -1 -2 -2 -1 -3 -3 -3 -2 -2 -2 -1 -1 -1 -1 -1 -1 -1 -1 -0 -0 -0 -0 -1 -1 -1 -1 -1 -1 -1 -1 -1 -1 -1 -1 -1 -1 -1 -1 -1 -1
-3 -1 0 1 -1 -2 -2 -1 -2 -3 -3 -3 -2 -3 -2 -1 -1 -1 -1 -1 -1 -1 -1 -1 -1 -1 -1 -1 -1 -1 -1 -1 -1 -1 -1 -2 -2 -2 -2 -2 -2 -2 -2 -2
-3 -2 -2 -1 -2 -2 -0 -0 -2 -2 -3 -3 -3 -3 -2 -2 -2 -2 -1 -1 -1 -1 -1 -1 -1 -1 -2 -2 -2 -2 -2 -2 -2 -2 -2 -2 -2 -2 -2 -2 -2 -2 -2 -2
-4 -2 -1 -2 -3 -2 -2 -2 -2 -2 -3 -3 -3 -2 -2 -2 -2 -2 -2 -1 -1 -1 -1 -1 -2 -2 -2 -2 -2 -2 -2 -2 -2 -3 -3 -3 -3 -3 -3 -3 -3 -3 -3 -3
-3 -1 -2 -2 -2 -2 -2 -2 -3 -3 -3 -3 -3 -3 -2 -2 -2 -2 -2 -2 -2 -2 -2 -2 -2 -2 -2 -2 -3 -3 -3 -3 -3 -3 -3 -3 -3 -3 -3 -3 -3 -3 -3 -3
-5 -4 -3 -2 -2 -2 -2 -2 -3 -3 -3 -3 -3 -3 -3 -3 -3 -2 -2 -2 -2 -2 -2 -2 -2 -3 -3 -3 -3 -3 -3 -3 -4 -4 -4 -4 -4 -4 -4 -4 -4 -4 -4 -4
-5 -5 -4 -3 -2 -2 -3 -3 -3 -3 -3 -3 -3 -3 -3 -3 -3 -3 -3 -3 -3 -3 -3 -3 -3 -3 -3 -3 -3 -4 -4 -4 -4 -5 -5 -5 -5 -5 -5 -4 -4 -4 -4 -4
-3 -4 -4 -3 -2 -3 -3 -3 -3 -3 -3 -3 -3 -3 -3 -3 -3 -3 -3 -3 -3 -3 -3 -3 -3 -3 -3 -4 -4 -4 -4 -5 -5 -5 -5 -6 -5 -5 -5 -5 -5 -5 -5 -4
-3 -3 -3 -3 -3 -3 -3 -3 -3 -3 -3 -3 -3 -3 -4 -4 -4 -4 -4 -4 -4 -4 -4 -4 -4 -4 -4 -4 -4 -5 -5 -5 -5 -6 -6 -6 -6 -6 -6 -5 -5 -5 -5 -5
-3 -3 -3 -3 -3 -3 -4 -3 -4 -4 -4 -4 -4 -4 -4 -4 -4 -4 -4 -4 -4 -4 -4 -4 -4 -4 -5 -5 -5 -5 -5 -5 -6 -6 -6 -6 -6 -6 -6 -6 -6 -5 -5 -5
-3 -3 -4 -4 -4 -4 -4 -4 -4 -4 -4 -4 -4 -4 -4 -4 -5 -5 -5 -5 -5 -5 -5 -5 -5 -5 -5 -5 -5 -5 -5 -6 -6 -6 -6 -6 -6 -6 -6 -6 -6 -6 -6 -5
-3 -4 -4 -4 -4 -4 -4 -4 -4 -4 -4 -5 -5 -5 -5 -5 -5 -5 -5 -5 -5 -5 -5 -5 -5 -5 -5 -5 -5 -6 -6 -6 -6 -6 -6 -6 -6 -6 -6 -6 -6 -6 -6 -6
-4 -4 -4 -4 -4 -4 -4 -5 -5 -5 -5 -5 -5 -5 -5 -5 -5 -5 -5 -5 -5 -6 -5 -5 -5 -6 -6 -6 -6 -6 -6 -6 -6 -6 -6 -6 -6 -6 -6 -6 -6 -6 -6 -6
-3 -3 -4 -4 -4 -4 -5 -5 -5 -5 -5 -5 -5 -5 -6 -6 -6 -6 -6 -6 -6 -6 -6 -6 -6 -6 -6 -6 -6 -6 -6 -6 -6 -6 -6 -6 -7 -6 -6 -6 -6 -6 -6 -6
-4 -4 -4 -4 -4 -4 -5 -5 -5 -5 -5 -6 -6 -6 -6 -6 -6 -6 -6 -6 -6 -6 -6 -6 -6 -6 -6 -6 -6 -6 -6 -6 -6 -6 -7 -7 -7 -7 -6 -6 -6 -6 -6 -6
-4 -4 -4 -4 -5 -5 -5 -5 -5 -6 -6 -6 -6 -6 -6 -6 -6 -6 -6 -6 -6 -6 -6 -6 -6 -6 -6 -6 -6 -6 -6 -6 -7 -7 -7 -7 -7 -7 -7 -7 -7 -7 -7 -7
-4 -4 -4 -5 -5 -5 -5 -6 -6 -6 -6 -6 -6 -6 -6 -6 -6 -6 -6 -6 -6 -7 -7 -7 -7 -6 -6 -6 -7 -7 -7 -7 -7 -7 -7 -7 -7 -7 -7 -7 -7 -7 -7 -7
-4 -4 -5 -5 -5 -5 -6 -6 -6 -6 -6 -6 -6 -6 -7 -7 -7 -7 -7 -7 -7 -7 -7 -7 -7 -7 -7 -7 -7 -7 -7 -7 -7 -7 -7 -7 -7 -7 -7 -7 -7 -7 -7 -7
-4 -4 -5 -5 -5 -6 -6 -6 -6 -6 -6 -6 -6 -6 -7 -7 -7 -7 -7 -7 -7 -7 -7 -7 -7 -7 -7 -7 -7 -7 -7 -7 -7 -7 -8 -8 -8 -8 -8 -7 -7 -7 -7 -7
-4 -5 -5 -5 -6 -6 -6 -6 -6 -6 -7 -7 -7 -7 -7 -7 -7 -7 -7 -7 -7 -7 -7 -7 -7 -7 -7 -7 -7 -7 -7 -8 -8 -8 -8 -8 -8 -8 -8 -7 -7 -7 -7 -7
-5 -5 -5 -6 -6 -6 -6 -6 -6 -7 -7 -7 -7 -7 -7 -7 -7 -7 -7 -7 -7 -7 -7 -7 -7 -7 -7 -7 -7 -7 -8 -8 -8 -8 -8 -8 -8 -8 -8 -8 -7 -7 -7 -7
-5 -5 -6 -6 -6 -6 -7 -7 -7 -7 -7 -7 -7 -7 -7 -7 -7 -7 -7 -7 -7 -7 -7 -7 -7 -7 -8 -8 -8 -8 -8 -8 -8 -8 -8 -8 -8 -8 -8 -8 -8 -7 -7 -7
-5 -6 -6 -6 -6 -7 -7 -7 -7 -7 -7 -7 -7 -7 -7 -7 -7 -7 -7 -7 -8 -8 -8 -8 -8 -8 -8 -8 -8 -8 -8 -8 -8 -8 -8 -8 -8 -8 -8 -8 -8 -8 -8 -7
Wind_Speed
5 5 3 5 6 5 7 7 8 9 9 11 8 7 7 7 7 7 8 8 7 7 6 6 6 5 5 4 3 3 2 2 1 2 1 1 1 1 1 0 0 0 1 1
3 2 3 6 8 8 8 7 8 9 11 8 7 5 6 6 7 7 8 9 8 7 7 6 5 5 5 4 3 2 2 2 2 2 2 2 1 1 1 1 1 0 0 1
4 5 4 6 6 7 5 5 6 8 8 7 8 8 7 7 7 7 8 8 8 7 6 6 5 4 4 3 3 2 2 2 2 2 3 2 2 2 2 1 1 1 1 0
2 4 4 5 1 3 4 6 6 6 7 7 7 8 6 5 5 7 8 8 7 7 6 5 4 3 3 3 2 2 2 2 2 3 3 3 3 2 2 1 1 1 1 1
1 2 7 6 1 1 2 5 3 6 8 7 7 6 5 3 4 6 7 6 6 6 5 4 3 3 3 3 3 3 2 2 2 2 2 3 3 3 2 1 1 2 2 2
2 2 5 4 2 1 1 4 2 3 6 5 5 4 5 6 7 7 7 6 5 5 4 4 4 3 3 3 3 3 2 2 2 2 2 2 2 2 2 2 2 2 2 2
4 5 7 5 2 1 1 5 5 3 4 3 3 5 7 8 7 6 6 6 5 4 3 4 4 3 3 2 3 3 2 2 2 2 2 1 1 1 2 2 2 2 2 3
4 4 7 1 2 2 4 4 4 4 4 5 6 7 7 7 7 6 6 6 5 4 4 4 3 3 3 3 3 3 2 3 3 3 2 2 2 2 2 2 2 2 2 3
7 7 3 2 3 3 3 4 5 5 6 5 6 6 7 6 6 5 5 5 4 3 3 4 4 2 2 3 3 3 3 3 3 3 3 2 2 2 2 2 1 2 2 3
4 7 5 5 4 3 3 4 6 6 6 5 6 6 7 6 6 5 5 4 3 3 3 4 4 3 3 3 2 2 3 3 3 3 4 3 3 2 2 2 2 2 2 3
6 6 5 4 4 4 5 5 5 6 5 5 5 6 6 6 6 5 4 3 3 2 3 4 3 3 3 2 2 2 2 2 3 3 3 3 3 2 3 3 2 2 2 3
5 4 4 6 4 4 4 5 6 6 6 6 5 6 6 6 5 4 4 3 3 3 3 3 3 3 3 2 1 1 2 2 2 2 2 2 3 4 5 4 5 6 5 5
5 3 4 5 4 3 4 6 6 6 6 6 5 4 5 5 4 3 3 3 3 3 3 3 3 3 3 3 1 1 1 1 2 2 2 2 2 3 4 5 6 6 7 6
4 2 3 4 5 5 5 5 5 5 4 4 4 4 4 4 4 3 4 4 3 3 3 3 3 4 4 2 2 1 1 2 2 2 2 2 2 2 3 3 4 5 6 7
4 4 5 5 4 4 4 4 4 5 5 5 4 4 3 3 4 4 4 4 3 3 3 3 3 4 3 2 1 2 2 1 1 1 2 2 2 2 3 3 3 4 4 5
4 3 3 3 4 5 4 4 5 6 5 5 5 4 4 3 3 3 3 3 2 3 3 3 3 4 3 2 1 1 1 3 2 2 2 2 2 2 2 2 3 3 3 4
2 3 4 5 6 6 5 5 5 5 5 4 5 4 3 3 3 4 3 3 2 3 3 3 4 3 3 2 2 2 2 2 3 2 2 2 2 2 2 2 2 3 3 4
5 6 5 5 5 6 6 5 4 4 4 4 4 3 3 3 3 4 4 4 3 3 3 3 3 3 3 2 2 2 1 1 2 2 2 2 3 2 2 2 2 3 3 4
4 5 5 5 5 4 4 4 4 4 4 3 3 3 3 3 3 3 3 3 3 4 5 4 5 4 3 3 3 1 1 2 2 2 2 3 3 2 2 2 2 3 3 3
3 3 3 3 3 3 3 3 3 3 3 2 2 2 3 3 3 3 2 3 3 3 4 5 4 3 3 3 3 2 2 2 2 2 2 2 2 2 2 2 2 3 3 3
3 3 3 3 3 3 3 3 2 3 3 2 1 2 3 3 3 2 2 3 4 4 4 5 3 3 3 3 3 2 1 2 2 2 2 2 2 2 2 2 3 3 3 3
3 3 3 3 2 3 3 2 2 2 2 2 2 2 2 3 3 3 2 3 4 5 4 3 3 4 4 4 2 1 1 2 2 2 2 2 2 3 3 3 3 3 3 3
3 3 3 3 3 3 3 2 2 2 2 2 2 2 2 3 2 2 3 3 3 5 4 3 4 6 6 3 1 1 1 1 2 2 2 2 3 3 3 3 3 3 3 3
3 2 2 1 1 1 2 3 2 2 2 3 3 2 2 2 2 2 2 5 5 5 3 4 6 6 5 2 1 1 1 2 2 2 2 2 2 2 3 3 3 3 3 3
3 2 2 2 2 2 3 2 2 2 2 2 3 2 2 2 2 2 2 3 4 4 3 4 6 6 4 2 2 2 2 2 2 2 2 2 2 2 3 3 3 3 3 3
3 3 3 3 3 2 2 1 2 2 2 2 3 2 2 2 2 2 2 2 3 3 3 3 3 3 2 2 2 2 2 3 3 3 2 2 3 3 3 3 3 3 3 3
2 2 1 2 2 2 2 2 2 2 2 2 3 2 2 2 2 2 2 2 2 2 2 2 2 2 2 2 2 2 2 2 2 2 2 2 2 2 3 3 3 3 3 3
Wind_Direction
259 270 254 248 247 223 213 214 227 256 264 281 299 303 306 313 319 323 323 326 328 328 324 325 331 333 333 336 341 353 27 29 3 360 13 32 42 49 53 79 295 248 261 290
298 287 262 269 258 238 236 235 246 271 277 284 299 308 310 310 312 312 314 316 319 320 321 324 326 328 331 338 342 359 34 22 16 25 29 33 39 54 43 34 24 12 25 313
287 317 334 283 250 214 216 221 212 243 266 311 317 316 308 301 303 302 306 311 313 312 311 313 313 317 324 333 350 21 35 28 26 33 31 26 40 48 41 32 37 15 357 332
308 7 266 256 259 196 221 251 237 263 290 300 297 299 291 286 294 304 312 314 314 317 318 319 320 330 344 359 17 30 35 34 35 38 29 29 39 35 25 29 12 341 339 338
133 282 282 299 295 178 212 287 250 258 289 308 321 324 313 314 313 302 303 306 309 311 314 322 334 344 6 18 24 29 25 21 21 28 32 31 28 14 13 37 7 1 354 349
150 225 255 275 289 266 134 305 321 279 292 312 345 337 304 322 322 316 317 319 320 326 333 342 344 2 25 20 19 8 0 356 1 28 30 24 18 8 22 27 14 9 358 351
197 234 264 267 280 80 127 284 313 298 290 294 276 260 288 311 315 314 317 323 330 333 340 340 348 13 21 14 354 341 356 7 11 24 27 14 30 32 30 26 24 13 360 349
175 215 258 255 112 175 248 293 303 296 289 285 285 291 299 308 314 322 327 331 336 339 341 343 355 9 3 349 336 354 17 22 20 17 11 10 32 19 20 20 16 359 0 351
200 219 255 210 223 252 259 281 289 290 295 292 292 296 304 311 314 317 318 321 330 339 345 349 354 2 342 328 347 11 27 26 21 12 12 16 24 14 6 360 354 340 345 338
252 266 269 269 263 279 278 275 290 292 291 290 288 294 303 309 311 313 314 317 328 343 345 336 340 351 339 333 3 27 25 19 20 22 18 18 13 8 354 335 335 336 335 328
254 276 302 282 272 284 293 301 305 305 289 283 287 294 297 303 305 306 311 319 327 325 319 317 328 338 343 352 25 29 15 8 12 18 16 12 9 0 346 334 331 324 316 308
238 242 237 269 276 287 296 299 301 306 306 302 290 288 298 301 301 305 312 321 324 323 319 320 328 332 341 348 19 37 6 1 5 8 8 10 8 359 360 353 353 352 343 333
241 262 250 270 283 290 288 290 296 295 291 298 303 294 296 300 306 315 321 323 316 315 319 325 332 332 335 343 357 15 345 334 343 350 349 350 352 353 347 355 2 358 354 350
247 263 276 273 282 299 298 299 301 301 302 301 305 308 307 308 316 324 320 316 318 326 333 333 338 331 331 343 359 360 349 337 338 331 330 331 330 328 327 332 339 342 348 356
259 247 251 273 292 307 313 317 320 319 321 322 318 316 316 316 314 315 319 327 333 339 339 340 339 329 331 343 358 349 341 330 328 321 322 323 321 321 321 323 328 328 332 345
282 284 270 275 288 300 310 314 309 310 316 317 322 323 321 315 312 317 328 339 340 326 324 330 324 321 330 340 341 333 324 322 324 315 317 319 316 314 316 323 328 326 327 328
244 277 281 288 288 291 292 288 288 295 307 313 313 317 326 334 334 336 339 339 326 314 320 325 322 327 336 337 328 315 311 313 324 322 312 310 311 311 312 316 320 322 321 328
233 242 248 252 263 277 289 294 293 297 300 303 314 325 330 327 318 317 325 333 341 342 341 333 327 335 341 335 324 312 307 307 313 309 308 310 312 312 313 315 320 322 324 328
244 247 256 258 258 260 273 286 292 295 302 309 317 316 310 306 307 316 329 341 341 333 330 332 339 349 338 328 333 320 319 319 321 320 317 315 325 325 320 316 315 315 316 323
255 256 254 265 272 264 273 283 289 295 303 306 307 317 322 320 323 329 336 326 306 297 305 318 330 334 328 317 329 320 317 317 316 318 321 321 319 315 314 315 312 313 318 321
250 254 257 264 276 278 270 273 279 290 304 308 292 294 304 316 324 327 328 320 314 314 319 324 334 323 320 318 323 315 308 309 309 310 317 318 316 313 313 311 309 312 314 317
241 244 252 260 271 285 289 284 275 284 303 305 302 306 317 321 324 320 297 279 298 320 331 320 316 320 323 322 314 304 301 305 315 322 319 312 309 310 314 314 311 313 312 310
236 238 245 252 255 275 299 294 279 275 278 282 282 282 289 294 296 297 305 306 306 316 327 310 318 328 333 345 346 329 326 327 323 318 310 304 305 306 308 310 310 310 310 310
229 235 244 248 218 264 286 292 294 286 277 281 276 272 280 297 301 284 283 308 320 322 326 324 338 342 350 9 354 344 336 330 326 318 310 308 306 307 307 309 309 310 312 313
219 219 212 205 225 247 258 279 299 295 294 296 295 292 287 271 271 295 310 313 322 331 335 333 339 347 2 358 351 339 327 317 316 317 313 314 314 315 316 317 313 311 309 306
212 217 224 229 232 240 245 243 259 272 281 293 300 297 302 305 296 299 308 313 315 326 332 326 329 338 345 337 332 327 324 322 330 331 322 316 314 317 317 315 313 309 305 302
211 215 225 251 249 232 230 233 245 258 258 262 281 292 301 309 310 310 311 316 321 323 321 322 326 328 326 326 326 325 326 326 324 319 316 315 313 310 309 306 306 304 303 303
Height
1494 1492 1492 1490 1489 1490 1491 1489 1488 1480 1477 1468 1467 1466 1464 1462 1459 1456 1454 1451 1449 1447 1444 1442 1440 1438 1436 1435 1434 1433 1433 1432 1432 1431 1432 1432 1432 1432 1432 1432 1433 1433 1433 1434
1493 1489 1490 1489 1485 1486 1485 1484 1483 1478 1473 1467 1466 1464 1462 1460 1458 1455 1453 1450 1448 1446 1443 1441 1439 1437 1435 1433 1432 1432 1431 1431 1430 1430 1429 1429 1429 1429 1429 1429 1429 1429 1430 1430
1493 1493 1488 1484 1478 1479 1480 1479 1478 1476 1470 1466 1464 1462 1460 1459 1457 1454 1452 1449 1447 1444 1442 1440 1437 1435 1433 1432 1431 1430 1430 1429 1429 1428 1427 1427 1427 1427 1426 1426 1426 1426 1427 1427
1500 1495 1487 1476 1475 1474 1476 1475 1474 1471 1468 1466 1464 1461 1459 1457 1456 1453 1450 1448 1445 1443 1440 1438 1436 1435 1433 1431 1430 1429 1429 1428 1427 1426 1426 1425 1425 1424 1424 1424 1424 1424 1424 1424
1502 1498 1487 1476 1474 1475 1476 1473 1470 1470 1467 1465 1462 1459 1456 1455 1454 1452 1450 1447 1445 1442 1440 1437 1435 1434 1432 1430 1429 1428 1427 1427 1426 1425 1425 1424 1423 1422 1422 1421 1421 1421 1422 1422
1501 1494 1486 1475 1474 1472 1474 1472 1468 1467 1465 1464 1462 1462 1458 1455 1453 1450 1448 1446 1443 1441 1439 1436 1435 1433 1431 1429 1429 1428 1427 1426 1425 1425 1424 1423 1422 1421 1420 1419 1419 1419 1420 1420
1498 1496 1484 1475 1473 1473 1476 1472 1468 1466 1464 1463 1463 1462 1458 1454 1451 1449 1447 1444 1442 1440 1437 1435 1434 1432 1431 1430 1428 1428 1427 1426 1425 1424 1423 1422 1421 1420 1419 1419 1419 1418 1418 1418
1496 1494 1482 1473 1472 1474 1473 1468 1466 1464 1463 1462 1460 1457 1455 1452 1449 1447 1444 1442 1440 1438 1436 1435 1433 1432 1430 1429 1429 1427 1426 1425 1424 1423 1422 1421 1420 1419 1419 1418 1418 1417 1417 1416
1483 1478 1472 1470 1470 1470 1469 1467 1464 1463 1461 1459 1457 1454 1452 1450 1448 1445 1443 1441 1440 1438 1436 1434 1433 1432 1430 1429 1428 1427 1426 1424 1423 1422 1421 1420 1419 1418 1418 1417 1417 1416 1415 1415
1478 1471 1469 1468 1467 1467 1466 1464 1462 1461 1459 1456 1454 1452 1450 1448 1446 1444 1442 1440 1439 1437 1435 1434 1433 1431 1430 1429 1428 1427 1425 1424 1423 1422 1420 1419 1419 1418 1417 1417 1416 1415 1415 1414
1475 1469 1466 1464 1464 1464 1463 1461 1459 1457 1456 1454 1452 1450 1448 1446 1444 1442 1440 1439 1437 1436 1434 1433 1432 1431 1430 1428 1427 1426 1425 1423 1422 1421 1420 1419 1418 1418 1417 1416 1416 1415 1414 1414
1468 1465 1466 1463 1462 1461 1460 1458 1456 1454 1452 1451 1450 1447 1446 1443 1442 1440 1439 1437 1436 1435 1433 1432 1431 1430 1429 1427 1426 1425 1423 1422 1421 1420 1419 1418 1418 1417 1417 1416 1415 1415 1414 1413
1463 1462 1462 1460 1459 1459 1457 1455 1453 1452 1450 1448 1446 1445 1443 1441 1440 1438 1437 1436 1434 1433 1432 1431 1429 1428 1427 1426 1425 1424 1423 1422 1421 1420 1419 1418 1417 1416 1415 1414 1414 1413 1412 1411
1460 1460 1459 1458 1457 1455 1454 1452 1450 1449 1447 1445 1444 1442 1441 1439 1438 1436 1435 1434 1433 1432 1430 1429 1428 1427 1426 1425 1424 1423 1422 1421 1420 1419 1418 1417 1416 1415 1414 1413 1411 1410 1410 1409
1457 1457 1456 1455 1454 1452 1451 1449 1447 1446 1444 1443 1441 1440 1438 1437 1435 1434 1433 1432 1431 1430 1429 1428 1427 1426 1425 1424 1423 1422 1421 1420 1419 1418 1417 1416 1415 1415 1414 1412 1411 1409 1408 1407
1454 1454 1453 1452 1451 1449 1448 1446 1445 1443 1442 1440 1439 1438 1436 1435 1434 1433 1432 1431 1430 1428 1428 1427 1426 1425 1424 1423 1422 1421 1420 1419 1418 1417 1416 1415 1414 1413 1412 1411 1410 1408 1407 1406
1451 1450 1449 1448 1447 1446 1445 1444 1443 1441 1440 1439 1437 1436 1435 1434 1432 1431 1430 1429 1428 1427 1427 1426 1425 1424 1423 1422 1421 1420 1419 1418 1417 1416 1415 1414 1413 1412 1411 1410 1408 1407 1406 1406
1449 1448 1448 1446 1445 1444 1443 1442 1441 1440 1439 1437 1436 1435 1434 1433 1431 1430 1429 1428 1427 1426 1426 1425 1424 1423 1422 1421 1420 1419 1418 1417 1416 1415 1414 1413 1412 1411 1410 1409 1407 1406 1405 1404
1445 1445 1445 1444 1443 1442 1441 1440 1439 1438 1437 1436 1435 1434 1433 1432 1431 1430 1429 1427 1426 1425 1425 1424 1423 1422 1421 1420 1419 1418 1417 1416 1415 1414 1413 1412 1411 1409 1409 1408 1406 1405 1404 1403
1442 1442 1442 1441 1440 1439 1438 1438 1437 1436 1435 1434 1433 1432 1431 1431 1430 1429 1428 1427 1426 1425 1424 1423 1422 1420 1419 1419 1418 1417 1416 1415 1414 1413 1411 1410 1409 1408 1407 1406 1405 1404 1403 1402
1439 1439 1438 1438 1438 1437 1436 1436 1435 1434 1434 1433 1432 1431 1430 1430 1429 1428 1427 1425 1425 1424 1423 1422 1421 1420 1418 1418 1417 1416 1415 1414 1413 1411 1410 1409 1408 1407 1406 1405 1404 1403 1402 1401
1436 1436 1436 1436 1435 1435 1434 1434 1433 1432 1432 1431 1431 1430 1429 1428 1428 1427 1426 1425 1424 1423 1422 1420 1419 1418 1417 1416 1415 1414 1413 1413 1411 1410 1409 1408 1407 1406 1405 1404 1403 1402 1401 1400
1433 1433 1433 1433 1433 1432 1432 1431 1431 1430 1430 1429 1429 1428 1428 1427 1427 1426 1425 1424 1423 1422 1420 1419 1419 1418 1416 1415 1414 1413 1412 1411 1410 1409 1408 1407 1406 1405 1404 1403 1402 1401 1400 1399
1431 1431 1431 1431 1431 1430 1429 1429 1429 1429 1428 1428 1427 1427 1426 1426 1425 1425 1424 1423 1422 1421 1419 1418 1418 1417 1415 1414 1413 1412 1411 1410 1409 1408 1407 1406 1405 1404 1403 1402 1401 1400 1399 1398
1429 1429 1429 1428 1428 1428 1427 1427 1427 1426 1426 1426 1426 1425 1425 1424 1424 1423 1422 1421 1420 1419 1418 1418 1417 1416 1414 1413 1412 1411 1410 1409 1408 1407 1406 1405 1404 1403 1402 1401 1400 1399 1398 1397
1426 1426 1426 1426 1426 1425 1425 1425 1424 1424 1424 1424 1423 1423 1423 1422 1422 1421 1421 1420 1419 1418 1417 1416 1415 1414 1413 1412 1411 1410 1409 1408 1407 1406 1405 1404 1403 1402 1401 1400 1399 1398 1397 1396
1423 1424 1424 1423 1423 1423 1423 1422 1422 1422 1422 1422 1422 1421 1421 1421 1420 1420 1419 1418 1418 1417 1416 1415 1414 1413 1413 1412 1411 1410 1409 1408 1407 1406 1404 1403 1402 1401 1400 1399 1398 1397 1396 1395